Regional Weather Roundup
Issued by NWS

Home | Current Version | Previous Version | Text Only | Print | Product List | Glossary On
Versions: 1 2 3 4 5 6 7 8 9 10 11 12 13 14 15 16 17 18 19 20 21 22 23 24 25 26 27 28 29 30 31 32 33 34 35 36 37 38 39 40 41 42 43 44 45 46 47 48 49 50
875
ASHW40 PHFO 262043
RWRHI

WEATHER ROUNDUP FOR HAWAII
NATIONAL WEATHER SERVICE HONOLULU HI
1000 AM HST TUE SEP 26 2017

THIS IS AN AUTOMATED REPORT THAT HAS NOT BEEN QUALITY CONTROLLED.

NOTE..."FAIR" INDICATES FEW OR NO CLOUDS BELOW 12,000 FEET WITH NO
SIGNIFICANT WEATHER AND/OR OBSTRUCTIONS TO VISIBILITY.

* - THESE SITES REPORT LIMITED FIELDS
# - BUOY DATA PROVIDED BY PACIFIC ISLANDS OCEAN OBSERVING SYSTEM.

HIZ001>004-262100-
KAUAI-NIIHAU-

CITY           SKY/WX    TMP DP  RH WIND       PRES   REMARKS
LIHUE APT      MOSUNNY   85  71  63 NE16      30.02R HX  90
PORT ALLEN*      N/A     86 N/A N/A E17G24      N/A
POIPU*           N/A     84 N/A N/A NE8G18      N/A
PRINCEVILLE*     N/A     81 N/A N/A E7G14       N/A
KOKOLE POINT*  NOT AVBL
MOLOAA DAIRY*    N/A     86  72  62 NE3G12      N/A  HX  92
WAIMEA HTS*      N/A     90  68  48 SW8G14      N/A  HX  93
PUU OPAE*        N/A     75  64  69 SW3         N/A
PUU LUA*       NOT AVBL
MAKAHA RIDGE*    N/A     77  64  65 W2          N/A
$$

HIZ005>011-262100-
OAHU-

CITY           SKY/WX    TMP DP  RH WIND       PRES   REMARKS
HONOLULU       PTSUNNY   83  66  56 NE12      29.99S
KALAELOA       PTSUNNY   84  69  60 SE9       30.00S
KANEOHE MCB    MOSUNNY   84  70  62 NE9       29.97S
WHEELER FIELD  FAIR      80  67  65 CALM      30.00S
BELLOWS*         N/A    N/A N/A N/A NE10        N/A
KAHUKU*          N/A    N/A N/A N/A NE6G13      N/A
WHEELER*         N/A    N/A N/A N/A NE5         N/A
WAIANAE HARBOR   N/A    N/A N/A N/A W8          N/A
DILLINGHAM*      N/A     70  55  60 SW5G12      N/A
KAHUKU TRN*      N/A     86  72  62 W7G17       N/A  HX  92
KAWAILOA*        N/A     79  68  69 E6G13       N/A
KII*             N/A     82  70  65 E12         N/A
MAKUA RANGE*     N/A     86  66  51 W6G14       N/A
OAHU FOREST NW NOT AVBL
SCHOFIELD BRK*   N/A     79  63  57 MISG        N/A
SCHOFIELD S*   NOT AVBL
WAIANAE VLY*   NOT AVBL
KUAOKALA*      NOT AVBL
HONOULIUULI*   NOT AVBL
MOKUOLOE IS*   NOT AVBL
PALEHUA*         N/A     73  63  68 NE6         N/A
WAIAWA PHB*    NOT AVBL
$$

HIZ012>013-262100-
MOLOKAI-

CITY           SKY/WX    TMP DP  RH WIND       PRES   REMARKS
MOLOKAI AIRPT  MOSUNNY   83  68  60 NE12G22   30.00F
KALAUPAPA      NOT AVBL
MAKAPULAPAI*     N/A     84  70  61 E12         N/A
MOLOKAI 1*     NOT AVBL
PUU ALII*        N/A     64  64  98 VRB2        N/A
$$

HIZ016-262100-
KAHOOLAWE-

CITY           SKY/WX    TMP DP  RH WIND       PRES   REMARKS
KAHOOLAWE*     NOT AVBL
HAKIOAWA*        N/A     77  65  66 MISG      30.42
HONOKANAIA*      N/A     86  66  51 E12       29.93R
KANELOA*         N/A     79  66  65 NE9G16    30.06R
KEALIALALO*    NOT AVBL
LUA MAKIKA*    NOT AVBL
$$

HIZ014>015-262100-
LANAI-

CITY           SKY/WX    TMP DP  RH WIND       PRES   REMARKS
LANAI CITY     CLOUDY    75  66  73 S3        30.05S
LANAI 1*       NOT AVBL
$$

HIZ017>028-262100-
MAUI-

CITY           SKY/WX    TMP DP  RH WIND       PRES   REMARKS
KAHULUI        MOSUNNY   86  70  58 NE17      29.99S HX  90
KAPALUA-W MAUI MOSUNNY   84  64  51 NE13      30.00
HANA AIRPORT   NOT AVBL
HANA*          NOT AVBL
HALEAKALA SUMM   N/A     57  30  35 E2G26       N/A
MAALAEA BAY*     N/A     84 N/A N/A N15G25      N/A
HALEAKALA*     NOT AVBL
KAUPO GAP*     NOT AVBL
KULA 1*          N/A     62  54  75 NW3         N/A
$$

HIZ023>026-262100-
BIG ISLAND OF HAWAII COAST AND LOWER SLOPES-

CITY           SKY/WX    TMP DP  RH WIND       PRES   REMARKS
KAILUA KONA    MOSUNNY   83  65  54 SW8       29.96S
HILO           MOSUNNY   83  71  67 NE8       29.99S
HONOKAA*         N/A     81 N/A N/A VRB1        N/A
KAWAIHAE MWT*    N/A     82 N/A N/A W6          N/A
KAWAIHAE*        N/A     81 N/A N/A W3        29.96S
SOUTH POINT*     N/A     81 N/A N/A S5G10       N/A
UPOLU AIRPORT* NOT AVBL
KAMUELA*       NOT AVBL
HAKALAU*         N/A     66  47  51 NE5         N/A
KALOKO-HONOKO*   N/A     84  66  54 W7        29.96S
PALI 2*          N/A     75  63  64 N8          N/A
KEALAKOMO*       N/A     88  63  42 VRB12G18    N/A
KAUPULEHU*       N/A     82  64  54 W8G16       N/A
KAPAPALA*        N/A     78  69  74 S5G10       N/A
LOWER KAHUKU*    N/A    N/A N/A N/A SE2         N/A
PUHE CS*         N/A     82  64  54 W3          N/A
PUHO CS*         N/A     85  69  57 SW3         N/A
PTA KEAMUKU*     N/A     75  59  57 NE17G23     N/A
WAIKOLOA*        N/A     82  64  54 SW6G14      N/A
$$

HIZ027>028-262100-
BIG ISLAND OF HAWAII INTERIOR AND SUMMMITS-

CITY           SKY/WX    TMP DP  RH WIND       PRES   REMARKS
BRADSHAW FIELD SUNNY     72  37  27 W3        30.31S
MK VISITOR CEN   N/A     57  46  67 S5          N/A
MAUNA KEA*       N/A     48   5  17 NE14        N/A
MAUNA LOA*       N/A    N/A N/A N/A MISG        N/A
MAUNA LOA 1*   NOT AVBL
PTA KIPUKA*      N/A    N/A N/A N/A SE6G12      N/A
PTA RANGE 17*    N/A     52  32  46 E9          N/A
PTA WEST*        N/A     72  52  49 NW8G15      N/A
NENE CABIN*      N/A     63  50  63 E6G12       N/A
AHUMOA*          N/A     67  56  67 NW6G13      N/A
PTA PORTABLE*  NOT AVBL
PUU MALI*        N/A     61 N/A N/A NE10G18     N/A
$$

HIC003-262100-
NORTHWEST ISLANDS-

CITY           SKY/WX    TMP DP  RH WIND       PRES   REMARKS
MIDWAY ISLAND  SUNNY     81  73  78 SW5       30.05S
MIDWAY NOS*      N/A     90 N/A N/A MISG      30.04S
FRENCH FRIGATE NOT AVBL
$$

PHZ110>124-180-262100-
BUOY REPORTS

STATION/POSITION TIME  TEMP    WIND        PRES    WAVE   SWELL
                       AIR SEA DIR/SP/G            HT/PER HT/DIR
                 (UTC) (F)     (DEG/KT/KT) (MB)    (FT/S) (FT/D)
BUOY 51001       2020   80 82   80/  4/  6 1017.1
BUOY 51101       1950   80 82   90/  4/  6 1017.5R   4/11   3/280
BUOY 51100       NOT AVBL
BUOY 51002       2020   80 81   70/ 12/ 14 1014.2
BUOY 51003       1950   80 82   60/ 10/ 12 1014.8R   4/11   3/230
BUOY 51004       1950      81   40/ 12/ 14 1014.0R   5/ 8   5/ 60
WAIMEA BAY#      2002      80                N/A     3/ 8   2/330
MOKAPU POINT#    1904      81                N/A     4/ 8   2/ 80
LANAI#           NOT AVBL
BARBERS PT 2#    NOT AVBL
PAUWELA#         2009      81                N/A     4/10   2/ 20
HILO#            2027      80                N/A     4/ 8   2/ 80
KANEOHE BAY#     NOT AVBL
KANEOHE BAY 2#   NOT AVBL
HANALEI#         2022      81                N/A     4/10   2/330
KAHULUI HARBOR   2012   79 82   10/ 10/ 12 1015.6
HONOLULU HARBOR  2012   81 81   60/  5/  7 1016.1
PEARL HARBOR#    1930      82                N/A     1/13   2/170
KILO NALU        NOT AVBL
HILO HARBOR      2018   80 80   20/  8/ 12 1015.1
MOKUOLOE         1936   80 82   50/  8/ 11 1015.9R
NAWILIWILI       2012   80 82   50/ 10/ 15 1016.0
WHOTS BUOY       NOT AVBL
BUOY 51028       NOT AVBL
$$

......................KEY........................................
  SKY/WX - SKY CONDITIONS/PRESENT WEATHER
  TMP    - TEMPERATURE IN FAHRENHEIT
  DWPT   - DEWPOINT IN FAHRENHEIT
  RH     - RELATIVE HUMIDITY IN PERCENT
  WIND   - DIRECTION AND SPEED /MPH FOR ISLANDS...KTS FOR BUOYS/
  PRES   - MEAN SEA LEVEL PRESSURE IN INCHES OF HG
  VSB    - VISIBILITY IN MILES
  HX     - HEAT INDEX
  WCI    - WIND CHILL INDEX
  VRB    - VARIABLE WIND DIRECTION
  N/A    - NOT AVAILABLE




USA.gov is the U.S. government's official web portal to all federal, state and local government web resources and services.